Madison, MN

11:11 AM CST on December 13, 2017 (GMT -0600)
Madison-Lac Qui Parle County

Weather History for KDXX - January, 2013

Change the Weather History Date:

Sunday, January 6, 2013

  Actual Average (KAQP) Record (KAQP)
Temperature  
Mean Temperature 16 °F -  
Max Temperature 28 °F 19 °F 46 °F (2012)
Min Temperature 5 °F 4 °F -20 °F (2014)
Degree Days  
Heating Degree Days 48    
Moisture  
Dew Point 9 °F    
Average Humidity 82    
Maximum Humidity 92    
Minimum Humidity 69    
Precipitation  
Precipitation 0.00 in - - ()
Sea Level Pressure  
Sea Level Pressure 30.10 in    
Wind  
Wind Speed 7 mph (SSW)    
Max Wind Speed 22 mph    
Max Gust Speed -    
Visibility 10 miles    
Events      
Averages and records for this station are not official NWS values.
T = Trace of Precipitation, MM = Missing Value Source: NWS Daily Summary

Daily Weather History Graph

Daily Weather History Graph

Search for Another Location

Airport or City:

Trip Planner

Search our weather history database for the weather conditions in past years. The results will help you decide how hot, cold, wet, or windy it might be!

Date:

Astronomy

Jan. 06, 2013 Rise Set
Actual Time 8:02 AM CST 4:59 PM CST
Civil Twilight 7:29 AM CST 5:32 PM CST
Nautical Twilight 6:52 AM CST 6:09 PM CST
Astronomical Twilight 6:16 AM CST 6:44 PM CST
Moon 2:12 AM CST (1/6) 12:32 PM CST (1/6)
Length of Visible Light 10h 03m
Length of Day
8h 56m
Waning Crescent, 33% of the Moon is Illuminated
Jan 6
Waning Crescent
Jan 11
New
Jan 18
First Quarter
Jan 26
Full
Feb 3
Last Quarter

Hourly Weather History & Observations

Time (CST) Temp. Windchill Dew Point Humidity Pressure Visibility Wind Dir Wind Speed Gust Speed Precip Events Conditions
12:14 AM 10.4 °F -0.4 °F 6.8 °F 85% 30.14 in 10.0 mi WNW 6.9 mph - N/A   Clear
12:34 AM 10.4 °F -4.1 °F 6.8 °F 85% 30.14 in 10.0 mi WNW 11.5 mph - N/A   Clear
12:53 AM 8.6 °F -4.7 °F 5.0 °F 85% 30.14 in 10.0 mi WNW 9.2 mph - N/A   Clear
1:14 AM 8.6 °F -3.7 °F 5.0 °F 85% 30.15 in 10.0 mi NW 8.1 mph - N/A   Clear
1:34 AM 8.6 °F -3.7 °F 6.8 °F 92% 30.15 in 10.0 mi WNW 8.1 mph - N/A   Mostly Cloudy
1:53 AM 8.6 °F -2.6 °F 6.8 °F 92% 30.15 in 10.0 mi WNW 6.9 mph - N/A   Overcast
2:14 AM 8.6 °F -2.6 °F 3.2 °F 79% 30.14 in 10.0 mi West 6.9 mph - N/A   Mostly Cloudy
2:34 AM 8.6 °F 2.0 °F 5.0 °F 85% 30.16 in 10.0 mi NW 3.5 mph - N/A   Overcast
2:53 AM 8.6 °F 2.0 °F 6.8 °F 92% 30.15 in 10.0 mi WSW 3.5 mph - N/A   Overcast
3:14 AM 12.2 °F 4.3 °F 8.6 °F 85% 30.14 in 10.0 mi West 4.6 mph - N/A   Overcast
3:34 AM 12.2 °F 4.3 °F 8.6 °F 85% 30.14 in 10.0 mi West 4.6 mph - N/A   Overcast
4:14 AM 12.2 °F - 8.6 °F 85% 30.14 in 10.0 mi Calm Calm - N/A   Overcast
4:34 AM 12.2 °F - 8.6 °F 85% 30.15 in 10.0 mi Calm Calm - N/A   Overcast
4:53 AM 12.2 °F - 8.6 °F 85% 30.15 in 10.0 mi Calm Calm - N/A   Overcast
5:33 AM 10.4 °F - 8.6 °F 92% 30.15 in 10.0 mi Calm Calm - N/A   Clear
5:54 AM 12.2 °F - 8.6 °F 85% 30.16 in 10.0 mi Calm Calm - N/A   Clear
6:33 AM 10.4 °F 4.0 °F 6.8 °F 85% 30.17 in 10.0 mi WSW 3.5 mph - N/A   Clear
6:54 AM 8.6 °F - 6.8 °F 92% 30.17 in 10.0 mi Calm Calm - N/A   Clear
7:14 AM 8.6 °F 2.0 °F 3.2 °F 79% 30.18 in 10.0 mi West 3.5 mph - N/A   Clear
7:33 AM 8.6 °F 0.1 °F 5.0 °F 85% 30.18 in 10.0 mi West 4.6 mph - N/A   Clear
7:54 AM 6.8 °F -0.1 °F 1.4 °F 79% 30.19 in 10.0 mi West 3.5 mph - N/A   Clear
8:14 AM 6.8 °F - 3.2 °F 85% 30.20 in 10.0 mi Calm Calm - N/A   Clear
8:33 AM 5.0 °F -2.1 °F 1.4 °F 85% 30.20 in 10.0 mi West 3.5 mph - N/A   Clear
8:54 AM 6.8 °F -0.1 °F 1.4 °F 79% 30.20 in 10.0 mi West 3.5 mph - N/A   Clear
9:13 AM 6.8 °F -3.5 °F 3.2 °F 85% 30.21 in 10.0 mi West 5.8 mph - N/A   Clear
9:34 AM 6.8 °F -0.1 °F 3.2 °F 85% 30.21 in 10.0 mi WSW 3.5 mph - N/A   Clear
9:54 AM 6.8 °F -0.1 °F 3.2 °F 85% 30.21 in 10.0 mi West 3.5 mph - N/A   Clear
10:13 AM 8.6 °F - 5.0 °F 85% 30.22 in 10.0 mi Calm Calm - N/A   Clear
10:34 AM 10.4 °F 0.8 °F 6.8 °F 85% 30.21 in 10.0 mi West 5.8 mph - N/A   Clear
10:54 AM 10.4 °F - 6.8 °F 85% 30.21 in 10.0 mi Calm Calm - N/A   Clear
11:13 AM 12.2 °F - 6.8 °F 79% 30.21 in 10.0 mi Calm Calm - N/A   Clear
11:34 AM 15.8 °F 8.6 °F 8.6 °F 73% 30.21 in 10.0 mi West 4.6 mph - N/A   Clear
11:53 AM 15.8 °F - 8.6 °F 73% 30.20 in 10.0 mi Calm Calm - N/A   Clear
12:13 PM 15.8 °F - 10.4 °F 79% 30.18 in 10.0 mi Calm Calm - N/A   Clear
12:34 PM 15.8 °F - 10.4 °F 79% 30.17 in 10.0 mi Calm Calm - N/A   Clear
12:53 PM 15.8 °F 8.6 °F 10.4 °F 79% 30.16 in 10.0 mi South 4.6 mph - N/A   Clear
1:14 PM 17.6 °F 9.3 °F 10.4 °F 73% 30.16 in 10.0 mi SSW 5.8 mph - N/A   Clear
1:34 PM 17.6 °F 10.7 °F 10.4 °F 73% 30.16 in 10.0 mi South 4.6 mph - N/A   Clear
1:53 PM 17.6 °F 8.2 °F 12.2 °F 79% 30.14 in 10.0 mi SSE 6.9 mph - N/A   Clear
2:14 PM 17.6 °F 8.2 °F 10.4 °F 73% 30.13 in 10.0 mi SSE 6.9 mph - N/A   Clear
2:34 PM 17.6 °F 8.2 °F 12.2 °F 79% 30.12 in 10.0 mi SSE 6.9 mph - N/A   Clear
2:53 PM 17.6 °F 8.2 °F 12.2 °F 79% 30.13 in 10.0 mi SSE 6.9 mph - N/A   Clear
3:14 PM 15.8 °F 5.1 °F 10.4 °F 79% 30.13 in 10.0 mi SSE 8.1 mph - N/A   Clear
3:34 PM 15.8 °F 6.1 °F 10.4 °F 79% 30.12 in 10.0 mi SSE 6.9 mph - N/A   Clear
3:53 PM 15.8 °F 5.1 °F 10.4 °F 79% 30.12 in 10.0 mi SSE 8.1 mph - N/A   Clear
4:14 PM 15.8 °F 6.1 °F 10.4 °F 79% 30.12 in 10.0 mi SSE 6.9 mph - N/A   Clear
4:53 PM 15.8 °F 4.2 °F 10.4 °F 79% 30.10 in 10.0 mi SSE 9.2 mph - N/A   Clear
5:14 PM 14.0 °F 2.0 °F 10.4 °F 86% 30.09 in 10.0 mi SSE 9.2 mph - N/A   Clear
5:34 PM 14.0 °F 1.2 °F 10.4 °F 86% 30.08 in 10.0 mi SSE 10.4 mph - N/A   Clear
5:53 PM 14.0 °F -0.2 °F 10.4 °F 86% 30.07 in 10.0 mi SSE 12.7 mph - N/A   Clear
6:14 PM 15.8 °F 1.4 °F 10.4 °F 79% 30.05 in 10.0 mi SSE 13.8 mph - N/A   Clear
6:34 PM 17.6 °F 3.2 °F 12.2 °F 79% 30.02 in 10.0 mi SSE 15.0 mph - N/A   Clear
6:53 PM 15.8 °F 2.1 °F 10.4 °F 79% 30.02 in 10.0 mi SSE 12.7 mph - N/A   Clear
7:14 PM 15.8 °F 1.4 °F 10.4 °F 79% 30.00 in 10.0 mi SSE 13.8 mph - N/A   Clear
7:34 PM 15.8 °F 0.9 °F 10.4 °F 79% 29.98 in 10.0 mi SSE 15.0 mph - N/A   Clear
7:53 PM 17.6 °F 2.7 °F 12.2 °F 79% 29.97 in 10.0 mi SSE 16.1 mph - N/A   Clear
8:14 PM 15.8 °F 0.9 °F 12.2 °F 86% 29.95 in 10.0 mi SSE 15.0 mph - N/A   Clear
8:34 PM 15.8 °F 2.1 °F 12.2 °F 86% 29.93 in 10.0 mi SSE 12.7 mph - N/A   Clear
8:53 PM 15.8 °F 0.9 °F 12.2 °F 86% 29.92 in 10.0 mi SSE 15.0 mph - N/A   Clear
9:14 PM 17.6 °F 3.7 °F 12.2 °F 79% 29.90 in 10.0 mi SSE 13.8 mph - N/A   Clear
9:34 PM 17.6 °F 2.7 °F 12.2 °F 79% 29.88 in 10.0 mi SSE 16.1 mph - N/A   Clear
9:53 PM 19.4 °F 4.5 °F 15.8 °F 86% 29.86 in 10.0 mi SSE 17.3 mph - N/A   Clear
10:34 PM 21.2 °F 8.9 °F 15.8 °F 80% 29.84 in 10.0 mi SSE 12.7 mph - N/A   Clear
10:53 PM 26.6 °F 12.4 °F 19.4 °F 74% 29.83 in 10.0 mi SSW 21.9 mph - N/A   Clear
11:34 PM 28.4 °F 17.0 °F 19.4 °F 69% 29.82 in 10.0 mi South 15.0 mph - N/A   Clear
11:53 PM 28.4 °F 17.0 °F 19.4 °F 69% 29.82 in 10.0 mi South 15.0 mph - N/A   Clear